| time (UTC) | temp C | wind direction | speed KPH | gust KPH | rain 1hr cm | rain 24hr cm | rain mn cm | humidity % | barometer mb |
| 20260509022144 | 10 | 292 | 0.0 | 0.0 | 0.00 | 0.00 | 0.00 | 88 | 1017.8 |
| 20260509021640 | 10 | 292 | 0.0 | 0.0 | 0.00 | 0.00 | 0.00 | 87 | 1017.9 |
| 20260509021137 | 10 | 291 | 0.0 | 0.0 | 0.00 | 0.00 | 0.00 | 87 | 1018.1 |
| 20260509020636 | 10 | 292 | 0.0 | 0.0 | 0.00 | 0.00 | 0.00 | 86 | 1018.0 |
| 20260509020132 | 10 | 293 | 0.0 | 0.0 | 0.00 | 0.00 | 0.00 | 86 | 1018.0 |
| 20260509015631 | 10 | 293 | 0.0 | 0.0 | 0.00 | 0.00 | 0.00 | 86 | 1018.0 |
| 20260509015128 | 11 | 293 | 0.0 | 1.6 | 0.00 | 0.00 | 0.00 | 86 | 1018.0 |
| 20260509014625 | 11 | 292 | 0.0 | 0.0 | 0.00 | 0.00 | 0.00 | 86 | 1017.9 |
| 20260509014121 | 11 | 292 | 0.0 | 0.0 | 0.00 | 0.00 | 0.00 | 84 | 1017.8 |
| 20260509013618 | 11 | 293 | 0.0 | 0.0 | 0.00 | 0.00 | 0.00 | 85 | 1017.9 |
| 20260509013114 | 11 | 293 | 0.0 | 0.0 | 0.00 | 0.00 | 0.00 | 84 | 1017.8 |
| 20260509012611 | 11 | 293 | 0.0 | 0.0 | 0.00 | 0.00 | 0.00 | 85 | 1017.8 |
| 20260509012107 | 11 | 293 | 0.0 | 0.0 | 0.00 | 0.00 | 0.00 | 85 | 1017.8 |
| 20260509011606 | 11 | 293 | 0.0 | 0.0 | 0.00 | 0.00 | 0.00 | 85 | 1017.9 |
| 20260509011102 | 11 | 293 | 0.0 | 0.0 | 0.00 | 0.00 | 0.00 | 84 | 1017.9 |
| 20260509010600 | 11 | 293 | 0.0 | 0.0 | 0.00 | 0.00 | 0.00 | 83 | 1017.9 |
| 20260509010056 | 11 | 293 | 0.0 | 0.0 | 0.00 | 0.00 | 0.00 | 83 | 1017.9 |
| 20260509005554 | 11 | 293 | 0.0 | 1.6 | 0.00 | 0.00 | 0.00 | 83 | 1017.6 |
| 20260509005049 | 11 | 288 | 0.0 | 0.0 | 0.00 | 0.00 | 0.00 | 82 | 1017.7 |
| 20260509004546 | 12 | 295 | 0.0 | 0.0 | 0.00 | 0.00 | 0.00 | 81 | 1017.4 |
| 20260509004043 | 12 | 295 | 0.0 | 0.0 | 0.00 | 0.00 | 0.00 | 79 | 1017.6 |
| 20260509003542 | 12 | 295 | 0.0 | 0.0 | 0.00 | 0.00 | 0.00 | 79 | 1017.3 |
| 20260509003039 | 12 | 295 | 0.0 | 0.0 | 0.00 | 0.00 | 0.00 | 80 | 1017.4 |
| 20260509002536 | 12 | 295 | 0.0 | 0.0 | 0.00 | 0.00 | 0.00 | 79 | 1017.3 |
| 20260509002033 | 12 | 295 | 0.0 | 0.0 | 0.00 | 0.00 | 0.00 | 78 | 1017.6 |
| 20260509001531 | 12 | 295 | 0.0 | 0.0 | 0.00 | 0.00 | 0.00 | 78 | 1017.3 |
| 20260509001026 | 12 | 296 | 0.0 | 0.0 | 0.00 | 0.00 | 0.00 | 74 | 1017.1 |
| 20260509000525 | 13 | 296 | 0.0 | 0.0 | 0.00 | 0.00 | 0.00 | 73 | 1017.2 |
| 20260509000021 | 13 | 295 | 0.0 | 0.0 | 0.00 | 0.00 | 0.00 | 73 | 1017.3 |
| 20260508235519 | 13 | 295 | 0.0 | 0.0 | 0.00 | 0.00 | 0.00 | 73 | 1017.2 |
| 20260508235014 | 13 | 295 | 0.0 | 0.0 | 0.00 | 0.00 | 0.00 | 71 | 1017.1 |
| 20260508234512 | 13 | 296 | 0.0 | 0.0 | 0.00 | 0.00 | 0.00 | 70 | 1017.2 |
| 20260508234009 | 13 | 293 | 0.0 | 0.0 | 0.00 | 0.00 | 0.00 | 70 | 1017.4 |
| 20260508233509 | 13 | 292 | 0.0 | 0.0 | 0.00 | 0.00 | 0.00 | 72 | 1017.2 |
| 20260508233005 | 14 | 293 | 0.0 | 0.0 | 0.00 | 0.00 | 0.00 | 69 | 1017.2 |
| 20260508232502 | 14 | 293 | 0.0 | 0.0 | 0.00 | 0.00 | 0.00 | 69 | 1017.3 |
| 20260508231959 | 14 | 293 | 0.0 | 0.0 | 0.00 | 0.00 | 0.00 | 67 | 1017.2 |
| 20260508231456 | 14 | 292 | 0.0 | 3.2 | 0.00 | 0.00 | 0.00 | 67 | 1017.0 |
| 20260508230954 | 14 | 296 | 0.0 | 1.6 | 0.00 | 0.00 | 0.00 | 64 | 1017.0 |
| 20260508230450 | 14 | 296 | 0.0 | 0.0 | 0.00 | 0.00 | 0.00 | 66 | 1017.2 |
| 20260508225947 | 15 | 296 | 0.0 | 3.2 | 0.00 | 0.00 | 0.00 | 65 | 1017.0 |
| 20260508225444 | 15 | 293 | 0.0 | 0.0 | 0.00 | 0.00 | 0.00 | 65 | 1017.1 |
| 20260508224941 | 15 | 293 | 1.6 | 3.2 | 0.00 | 0.00 | 0.00 | 63 | 1017.1 |
| 20260508224438 | 15 | 288 | 4.8 | 4.8 | 0.00 | 0.00 | 0.00 | 62 | 1017.2 |
| 20260508223936 | 15 | 292 | 0.0 | 1.6 | 0.00 | 0.00 | 0.00 | 66 | 1017.1 |
| 20260508223434 | 15 | 297 | 0.0 | 1.6 | 0.00 | 0.00 | 0.00 | 65 | 1017.2 |
| 20260508222930 | 15 | 289 | 0.0 | 1.6 | 0.00 | 0.00 | 0.00 | 61 | 1016.9 |
| 20260508222428 | 15 | 296 | 0.0 | 3.2 | 0.00 | 0.00 | 0.00 | 63 | 1017.2 |
| 20260508221924 | 15 | 289 | 0.0 | 0.0 | 0.00 | 0.00 | 0.00 | 67 | 1017.0 |
| 20260508221420 | 15 | 293 | 0.0 | 0.0 | 0.00 | 0.00 | 0.00 | 64 | 1017.0 |
| 20260508220917 | 15 | 293 | 0.0 | 0.0 | 0.00 | 0.00 | 0.00 | 63 | 1017.0 |
| 20260508220413 | 15 | 290 | 1.6 | 1.6 | 0.00 | 0.00 | 0.00 | 63 | 1016.9 |
| 20260508215909 | 15 | 289 | 0.0 | 0.0 | 0.00 | 0.00 | 0.00 | 62 | 1017.1 |
| 20260508215407 | 15 | 289 | 0.0 | 0.0 | 0.00 | 0.00 | 0.00 | 60 | 1017.2 |
| 20260508214903 | 15 | 305 | 0.0 | 1.6 | 0.00 | 0.00 | 0.00 | 61 | 1017.1 |
| 20260508214401 | 16 | 261 | 0.0 | 3.2 | 0.00 | 0.00 | 0.00 | 60 | 1017.1 |
| 20260508213857 | 16 | 289 | 0.0 | 1.6 | 0.00 | 0.00 | 0.00 | 60 | 1017.3 |
| 20260508213354 | 16 | 323 | 3.2 | 4.8 | 0.00 | 0.00 | 0.00 | 59 | 1017.0 |
| 20260508212850 | 17 | 290 | 0.0 | 3.2 | 0.00 | 0.00 | 0.00 | 55 | 1016.7 |
| 20260508212347 | 18 | 297 | 0.0 | 3.2 | 0.00 | 0.00 | 0.00 | 53 | 1016.7 |
| 20260508211842 | 17 | 302 | 0.0 | 1.6 | 0.00 | 0.00 | 0.00 | 60 | 1016.7 |
| 20260508211338 | 16 | 319 | 3.2 | 3.2 | 0.00 | 0.00 | 0.00 | 57 | 1016.7 |
| 20260508210836 | 17 | 293 | 1.6 | 3.2 | 0.00 | 0.00 | 0.00 | 55 | 1016.7 |
| 20260508210332 | 17 | 336 | 4.8 | 4.8 | 0.00 | 0.00 | 0.00 | 54 | 1016.8 |
| 20260508205829 | 17 | 308 | 0.0 | 1.6 | 0.00 | 0.00 | 0.00 | 56 | 1016.8 |
| 20260508205326 | 17 | 297 | 0.0 | 0.0 | 0.00 | 0.00 | 0.00 | 55 | 1016.8 |
| 20260508204822 | 16 | 298 | 0.0 | 1.6 | 0.00 | 0.00 | 0.00 | 57 | 1017.0 |
| 20260508204320 | 16 | 299 | 1.6 | 3.2 | 0.00 | 0.00 | 0.00 | 55 | 1017.0 |
| 20260508203815 | 16 | 297 | 0.0 | 1.6 | 0.00 | 0.00 | 0.00 | 58 | 1017.0 |
| 20260508203312 | 16 | 292 | 0.0 | 0.0 | 0.00 | 0.00 | 0.00 | 53 | 1016.9 |
| 20260508202807 | 17 | 301 | 0.0 | 0.0 | 0.00 | 0.00 | 0.00 | 56 | 1017.2 |
| 20260508202307 | 16 | 279 | 1.6 | 3.2 | 0.00 | 0.00 | 0.00 | 52 | 1016.9 |
| 20260508201802 | 17 | 297 | 0.0 | 1.6 | 0.00 | 0.00 | 0.00 | 52 | 1017.1 |
| 20260508201259 | 17 | 295 | 0.0 | 1.6 | 0.00 | 0.00 | 0.00 | 57 | 1017.0 |
| 20260508200755 | 17 | 346 | 4.8 | 4.8 | 0.00 | 0.00 | 0.00 | 52 | 1017.2 |
| 20260508200252 | 17 | 289 | 3.2 | 3.2 | 0.00 | 0.00 | 0.00 | 52 | 1017.4 |
| 20260508195748 | 17 | 291 | 1.6 | 4.8 | 0.00 | 0.00 | 0.00 | 51 | 1017.6 |
| 20260508195245 | 17 | 299 | 0.0 | 1.6 | 0.00 | 0.00 | 0.00 | 53 | 1017.4 |
| 20260508194741 | 17 | 295 | 1.6 | 3.2 | 0.00 | 0.00 | 0.00 | 55 | 1017.4 |
| 20260508194238 | 17 | 288 | 0.0 | 1.6 | 0.00 | 0.00 | 0.00 | 53 | 1017.7 |
| 20260508193735 | 18 | 291 | 0.0 | 3.2 | 0.00 | 0.00 | 0.00 | 51 | 1017.9 |
| 20260508193232 | 18 | 287 | 1.6 | 3.2 | 0.00 | 0.00 | 0.00 | 51 | 1017.8 |
| 20260508192728 | 17 | 276 | 1.6 | 1.6 | 0.00 | 0.00 | 0.00 | 53 | 1018.1 |
| 20260508192225 | 17 | 296 | 0.0 | 3.2 | 0.00 | 0.00 | 0.00 | 50 | 1018.0 |
| 20260508191723 | 16 | 282 | 3.2 | 3.2 | 0.00 | 0.00 | 0.00 | 58 | 1018.0 |
| 20260508191220 | 16 | 291 | 0.0 | 1.6 | 0.00 | 0.00 | 0.00 | 52 | 1018.3 |
| 20260508190717 | 17 | 308 | 0.0 | 1.6 | 0.00 | 0.00 | 0.00 | 51 | 1018.2 |
| 20260508190213 | 17 | 286 | 0.0 | 1.6 | 0.00 | 0.00 | 0.00 | 51 | 1018.5 |
| 20260508185710 | 17 | 291 | 0.0 | 1.6 | 0.00 | 0.00 | 0.00 | 56 | 1018.5 |
| 20260508185208 | 18 | 292 | 1.6 | 8.0 | 0.00 | 0.00 | 0.00 | 51 | 1018.4 |
| 20260508184704 | 18 | 299 | 0.0 | 1.6 | 0.00 | 0.00 | 0.00 | 49 | 1018.5 |
| 20260508184156 | 17 | 298 | 1.6 | 4.8 | 0.00 | 0.00 | 0.00 | 50 | 1018.5 |
| 20260508183652 | 17 | 294 | 1.6 | 4.8 | 0.00 | 0.00 | 0.00 | 50 | 1018.7 |
| 20260508183148 | 17 | 271 | 3.2 | 4.8 | 0.00 | 0.00 | 0.00 | 51 | 1018.5 |
| 20260508182644 | 17 | 285 | 3.2 | 3.2 | 0.00 | 0.00 | 0.00 | 52 | 1018.5 |
| 20260508182141 | 18 | 303 | 1.6 | 4.8 | 0.00 | 0.00 | 0.00 | 48 | 1018.6 |
| 20260508181637 | 18 | 294 | 1.6 | 4.8 | 0.00 | 0.00 | 0.00 | 49 | 1018.7 |
| 20260508181134 | 16 | 315 | 0.0 | 1.6 | 0.00 | 0.00 | 0.00 | 49 | 1018.9 |
| 20260508180631 | 15 | 298 | 1.6 | 4.8 | 0.00 | 0.00 | 0.00 | 50 | 1019.0 |
| 20260508180128 | 16 | 300 | 1.6 | 3.2 | 0.00 | 0.00 | 0.00 | 51 | 1018.9 |
| 20260508175624 | 17 | 288 | 0.0 | 3.2 | 0.00 | 0.00 | 0.00 | 50 | 1018.9 |
| 20260508175121 | 17 | 302 | 1.6 | 3.2 | 0.00 | 0.00 | 0.00 | 42 | 1019.0 |
| 20260508174619 | 17 | 299 | 1.6 | 4.8 | 0.00 | 0.00 | 0.00 | 49 | 1019.0 |
| 20260508174115 | 17 | 305 | 0.0 | 0.0 | 0.00 | 0.00 | 0.00 | 53 | 1019.0 |
| 20260508173612 | 16 | 303 | 0.0 | 1.6 | 0.00 | 0.00 | 0.00 | 55 | 1018.9 |
| 20260508173108 | 15 | 317 | 1.6 | 1.6 | 0.00 | 0.00 | 0.00 | 54 | 1019.0 |
| 20260508172606 | 15 | 334 | 4.8 | 4.8 | 0.00 | 0.00 | 0.00 | 55 | 1019.1 |
| 20260508172102 | 16 | 298 | 1.6 | 3.2 | 0.00 | 0.00 | 0.00 | 50 | 1019.6 |
| 20260508171559 | 17 | 296 | 0.0 | 3.2 | 0.00 | 0.00 | 0.00 | 48 | 1019.4 |
| 20260508171055 | 17 | 294 | 1.6 | 3.2 | 0.00 | 0.00 | 0.00 | 47 | 1019.3 |
| 20260508170552 | 17 | 297 | 1.6 | 3.2 | 0.00 | 0.00 | 0.00 | 47 | 1019.4 |
| 20260508170050 | 17 | 297 | 0.0 | 1.6 | 0.00 | 0.00 | 0.00 | 51 | 1019.3 |
| 20260508165547 | 17 | 297 | 1.6 | 1.6 | 0.00 | 0.00 | 0.00 | 47 | 1019.5 |
| 20260508165044 | 17 | 293 | 0.0 | 0.0 | 0.00 | 0.00 | 0.00 | 53 | 1019.6 |
| 20260508164540 | 16 | 295 | 1.6 | 3.2 | 0.00 | 0.00 | 0.00 | 49 | 1019.8 |
| 20260508164037 | 16 | 292 | 0.0 | 1.6 | 0.00 | 0.00 | 0.00 | 56 | 1019.8 |
| 20260508163534 | 15 | 296 | 0.0 | 3.2 | 0.00 | 0.00 | 0.00 | 57 | 1019.8 |
| 20260508163030 | 15 | 295 | 0.0 | 1.6 | 0.00 | 0.00 | 0.00 | 51 | 1019.9 |
| 20260508162527 | 15 | 298 | 0.0 | 0.0 | 0.00 | 0.00 | 0.00 | 53 | 1020.2 |
| 20260508162025 | 15 | 293 | 0.0 | 1.6 | 0.00 | 0.00 | 0.00 | 51 | 1020.0 |
| 20260508161521 | 15 | 295 | 1.6 | 3.2 | 0.00 | 0.00 | 0.00 | 51 | 1020.0 |
| 20260508161018 | 14 | 295 | 1.6 | 3.2 | 0.00 | 0.00 | 0.00 | 55 | 1020.3 |
| 20260508160517 | 14 | 295 | 0.0 | 0.0 | 0.00 | 0.00 | 0.00 | 56 | 1020.2 |
| 20260508160014 | 14 | 295 | 0.0 | 0.0 | 0.00 | 0.00 | 0.00 | 54 | 1020.3 |
| 20260508155510 | 14 | 291 | 0.0 | 1.6 | 0.00 | 0.00 | 0.00 | 51 | 1020.4 |
| 20260508155007 | 15 | 301 | 0.0 | 1.6 | 0.00 | 0.00 | 0.00 | 48 | 1020.2 |
| 20260508154505 | 14 | 282 | 3.2 | 4.8 | 0.00 | 0.00 | 0.00 | 54 | 1020.5 |
| 20260508154001 | 13 | 296 | 0.0 | 0.0 | 0.00 | 0.00 | 0.00 | 58 | 1020.5 |
| 20260508153458 | 13 | 295 | 1.6 | 3.2 | 0.00 | 0.00 | 0.00 | 64 | 1020.5 |
| 20260508152954 | 13 | 287 | 1.6 | 1.6 | 0.00 | 0.00 | 0.00 | 61 | 1020.6 |
| 20260508152451 | 13 | 293 | 1.6 | 3.2 | 0.00 | 0.00 | 0.00 | 60 | 1020.6 |
| 20260508151947 | 13 | 296 | 1.6 | 4.8 | 0.00 | 0.00 | 0.00 | 60 | 1020.8 |
| 20260508151444 | 13 | 295 | 0.0 | 3.2 | 0.00 | 0.00 | 0.00 | 60 | 1020.6 |
| 20260508150940 | 12 | 295 | 1.6 | 1.6 | 0.00 | 0.00 | 0.00 | 64 | 1020.6 |
| 20260508150437 | 11 | 288 | 1.6 | 1.6 | 0.00 | 0.00 | 0.00 | 63 | 1020.5 |
| 20260508145933 | 12 | 293 | 0.0 | 1.6 | 0.00 | 0.00 | 0.00 | 64 | 1020.6 |
| 20260508145430 | 12 | 295 | 1.6 | 1.6 | 0.00 | 0.00 | 0.00 | 62 | 1020.5 |
| 20260508144927 | 13 | 303 | 1.6 | 1.6 | 0.00 | 0.00 | 0.00 | 60 | 1020.6 |
| 20260508144424 | 13 | 271 | 0.0 | 3.2 | 0.00 | 0.00 | 0.00 | 59 | 1020.5 |
| 20260508143922 | 12 | 296 | 0.0 | 3.2 | 0.00 | 0.00 | 0.00 | 65 | 1020.8 |
| 20260508143419 | 12 | 301 | 1.6 | 3.2 | 0.00 | 0.00 | 0.00 | 68 | 1020.7 |
| 20260508142915 | 12 | 293 | 3.2 | 3.2 | 0.00 | 0.00 | 0.00 | 69 | 1020.6 |
| 20260508142413 | 11 | 291 | 1.6 | 3.2 | 0.00 | 0.00 | 0.00 | 69 | 1020.7 |
| 20260508141909 | 11 | 290 | 1.6 | 1.6 | 0.00 | 0.00 | 0.00 | 69 | 1020.6 |
| 20260508141406 | 11 | 297 | 0.0 | 1.6 | 0.00 | 0.00 | 0.00 | 73 | 1020.7 |
| 20260508140903 | 10 | 300 | 0.0 | 3.2 | 0.00 | 0.00 | 0.00 | 73 | 1020.8 |
| 20260508140401 | 10 | 295 | 0.0 | 0.0 | 0.00 | 0.00 | 0.00 | 75 | 1021.0 |
| 20260508135856 | 10 | 291 | 0.0 | 1.6 | 0.00 | 0.00 | 0.00 | 77 | 1020.8 |
| 20260508135354 | 10 | 295 | 0.0 | 0.0 | 0.00 | 0.00 | 0.00 | 79 | 1020.7 |
| 20260508134849 | 10 | 292 | 1.6 | 1.6 | 0.00 | 0.00 | 0.00 | 77 | 1020.8 |
| 20260508134345 | 9 | 303 | 0.0 | 1.6 | 0.00 | 0.00 | 0.00 | 79 | 1021.0 |
| 20260508133842 | 8 | 290 | 0.0 | 1.6 | 0.00 | 0.00 | 0.00 | 80 | 1020.7 |
| 20260508133340 | 8 | 295 | 0.0 | 1.6 | 0.00 | 0.00 | 0.00 | 83 | 1021.0 |
| 20260508132837 | 8 | 301 | 1.6 | 3.2 | 0.00 | 0.00 | 0.00 | 83 | 1020.8 |
| 20260508132335 | 8 | 290 | 0.0 | 1.6 | 0.00 | 0.00 | 0.00 | 84 | 1021.1 |
| 20260508131831 | 8 | 286 | 3.2 | 3.2 | 0.00 | 0.00 | 0.00 | 84 | 1021.0 |
| 20260508131327 | 8 | 291 | 0.0 | 0.0 | 0.00 | 0.00 | 0.00 | 85 | 1020.9 |
| 20260508130824 | 7 | 295 | 0.0 | 0.0 | 0.00 | 0.00 | 0.00 | 86 | 1020.7 |
| 20260508130321 | 7 | 294 | 0.0 | 0.0 | 0.00 | 0.00 | 0.00 | 89 | 1020.6 |
| 20260508125817 | 7 | 294 | 0.0 | 1.6 | 0.00 | 0.00 | 0.00 | 90 | 1020.9 |
| 20260508125313 | 7 | 286 | 1.6 | 1.6 | 0.00 | 0.00 | 0.00 | 90 | 1020.8 |
| 20260508124811 | 7 | 290 | 1.6 | 1.6 | 0.00 | 0.00 | 0.00 | 92 | 1020.6 |
| 20260508124308 | 7 | 291 | 0.0 | 1.6 | 0.00 | 0.00 | 0.00 | 93 | 1020.6 |
| 20260508123806 | 6 | 290 | 0.0 | 0.0 | 0.00 | 0.00 | 0.00 | 95 | 1020.5 |
| 20260508123304 | 6 | 294 | 0.0 | 0.0 | 0.00 | 0.00 | 0.00 | 95 | 1020.4 |
| 20260508122800 | 6 | 299 | 0.0 | 1.6 | 0.00 | 0.00 | 0.00 | 96 | 1020.6 |
| 20260508122257 | 6 | 294 | 0.0 | 0.0 | 0.00 | 0.00 | 0.00 | 96 | 1020.4 |
| 20260508121754 | 6 | 294 | 0.0 | 0.0 | 0.00 | 0.00 | 0.00 | 96 | 1020.3 |
| 20260508121253 | 6 | 299 | 0.0 | 1.6 | 0.00 | 0.00 | 0.00 | 96 | 1020.3 |
| 20260508120749 | 6 | 294 | 0.0 | 0.0 | 0.00 | 0.00 | 0.00 | 97 | 1020.3 |
| 20260508120248 | 6 | 294 | 0.0 | 0.0 | 0.00 | 0.00 | 0.00 | 97 | 1020.3 |
| 20260508115745 | 6 | 294 | 0.0 | 0.0 | 0.00 | 0.00 | 0.00 | 97 | 1020.5 |
| 20260508115242 | 6 | 294 | 0.0 | 0.0 | 0.00 | 0.00 | 0.00 | 98 | 1020.3 |
| 20260508114738 | 6 | 300 | 1.6 | 1.6 | 0.00 | 0.00 | 0.00 | 98 | 1020.0 |
| 20260508114235 | 6 | 300 | 0.0 | 0.0 | 0.00 | 0.00 | 0.00 | 98 | 1019.9 |
| 20260508113732 | 6 | 298 | 0.0 | 0.0 | 0.00 | 0.00 | 0.00 | 98 | 1019.6 |
| 20260508113231 | 6 | 297 | 0.0 | 0.0 | 0.00 | 0.00 | 0.00 | 98 | 1019.7 |
| 20260508112726 | 6 | 297 | 0.0 | 0.0 | 0.00 | 0.00 | 0.00 | 99 | 1019.8 |
| 20260508112224 | 6 | 299 | 0.0 | 0.0 | 0.00 | 0.00 | 0.00 | 99 | 1019.5 |
| 20260508111720 | 6 | 297 | 0.0 | 0.0 | 0.00 | 0.00 | 0.00 | 99 | 1019.7 |
| 20260508111218 | 6 | 297 | 0.0 | 0.0 | 0.00 | 0.00 | 0.00 | 99 | 1019.5 |
| 20260508110715 | 6 | 299 | 0.0 | 0.0 | 0.00 | 0.00 | 0.00 | 99 | 1019.3 |
| 20260508110212 | 6 | 294 | 0.0 | 0.0 | 0.00 | 0.00 | 0.00 | 99 | 1019.3 |
| 20260508105711 | 6 | 294 | 0.0 | 0.0 | 0.00 | 0.00 | 0.00 | 99 | 1019.2 |
| 20260508105209 | 6 | 294 | 0.0 | 0.0 | 0.00 | 0.00 | 0.00 | 99 | 1019.1 |
| 20260508104706 | 6 | 295 | 0.0 | 0.0 | 0.00 | 0.00 | 0.00 | 99 | 1019.2 |
| 20260508104203 | 5 | 294 | 0.0 | 0.0 | 0.00 | 0.00 | 0.00 | 99 | 1019.1 |
| 20260508103700 | 5 | 295 | 0.0 | 0.0 | 0.00 | 0.00 | 0.00 | 99 | 1019.2 |
| 20260508103157 | 5 | 294 | 0.0 | 0.0 | 0.00 | 0.00 | 0.00 | 99 | 1019.0 |
| 20260508102654 | 5 | 297 | 0.0 | 0.0 | 0.00 | 0.00 | 0.00 | 99 | 1018.9 |
| 20260508102152 | 5 | 297 | 0.0 | 0.0 | 0.00 | 0.00 | 0.00 | 99 | 1018.6 |
| 20260508101649 | 5 | 297 | 0.0 | 0.0 | 0.00 | 0.00 | 0.00 | 99 | 1018.7 |
| 20260508101147 | 5 | 297 | 0.0 | 0.0 | 0.00 | 0.00 | 0.00 | 99 | 1018.5 |
| 20260508100644 | 5 | 297 | 0.0 | 0.0 | 0.00 | 0.00 | 0.00 | 98 | 1018.4 |
| 20260508100142 | 5 | 297 | 0.0 | 0.0 | 0.00 | 0.00 | 0.00 | 98 | 1018.4 |
| 20260508095638 | 5 | 297 | 0.0 | 0.0 | 0.00 | 0.00 | 0.00 | 98 | 1018.5 |
| 20260508095135 | 5 | 297 | 0.0 | 0.0 | 0.00 | 0.00 | 0.00 | 98 | 1018.2 |
| 20260508094632 | 5 | 294 | 0.0 | 0.0 | 0.00 | 0.00 | 0.00 | 98 | 1018.2 |
| 20260508094129 | 5 | 294 | 0.0 | 0.0 | 0.00 | 0.00 | 0.00 | 98 | 1018.1 |
| 20260508093626 | 5 | 294 | 0.0 | 0.0 | 0.00 | 0.00 | 0.00 | 98 | 1018.5 |
| 20260508093124 | 4 | 294 | 0.0 | 0.0 | 0.00 | 0.00 | 0.00 | 98 | 1018.2 |
| 20260508092621 | 5 | 294 | 0.0 | 0.0 | 0.00 | 0.00 | 0.00 | 98 | 1018.1 |
| 20260508092120 | 5 | 294 | 0.0 | 0.0 | 0.00 | 0.00 | 0.00 | 98 | 1018.3 |
| 20260508091616 | 5 | 294 | 0.0 | 0.0 | 0.00 | 0.00 | 0.00 | 98 | 1018.2 |
| 20260508091113 | 5 | 294 | 0.0 | 0.0 | 0.00 | 0.00 | 0.00 | 98 | 1018.1 |
| 20260508090612 | 4 | 294 | 0.0 | 0.0 | 0.00 | 0.00 | 0.00 | 98 | 1018.2 |
| 20260508090108 | 5 | 294 | 0.0 | 0.0 | 0.00 | 0.00 | 0.00 | 98 | 1018.3 |
| 20260508085604 | 4 | 294 | 0.0 | 0.0 | 0.00 | 0.00 | 0.00 | 98 | 1018.1 |
| 20260508085102 | 4 | 294 | 0.0 | 0.0 | 0.00 | 0.00 | 0.00 | 97 | 1018.1 |
| 20260508084558 | 5 | 294 | 0.0 | 0.0 | 0.00 | 0.00 | 0.00 | 97 | 1018.2 |
| 20260508084056 | 5 | 294 | 0.0 | 0.0 | 0.00 | 0.00 | 0.00 | 97 | 1018.0 |
| 20260508083552 | 5 | 294 | 0.0 | 0.0 | 0.00 | 0.00 | 0.00 | 97 | 1018.0 |
| 20260508083049 | 5 | 294 | 0.0 | 0.0 | 0.00 | 0.00 | 0.00 | 97 | 1017.9 |
| 20260508082545 | 5 | 297 | 0.0 | 0.0 | 0.00 | 0.00 | 0.00 | 97 | 1017.9 |
| 20260508082042 | 5 | 297 | 0.0 | 0.0 | 0.00 | 0.00 | 0.00 | 97 | 1017.9 |
| 20260508081540 | 5 | 299 | 0.0 | 0.0 | 0.00 | 0.00 | 0.00 | 97 | 1018.0 |
| 20260508081036 | 5 | 303 | 1.6 | 1.6 | 0.00 | 0.00 | 0.00 | 97 | 1017.7 |
| 20260508080534 | 5 | 294 | 0.0 | 0.0 | 0.00 | 0.00 | 0.00 | 96 | 1017.9 |
| 20260508080031 | 5 | 294 | 0.0 | 0.0 | 0.00 | 0.00 | 0.00 | 96 | 1017.8 |
| 20260508075527 | 5 | 294 | 0.0 | 0.0 | 0.00 | 0.00 | 0.00 | 96 | 1017.8 |
| 20260508075025 | 5 | 294 | 0.0 | 0.0 | 0.00 | 0.00 | 0.00 | 96 | 1017.7 |
| 20260508074523 | 5 | 301 | 0.0 | 1.6 | 0.00 | 0.00 | 0.00 | 96 | 1017.6 |
| 20260508074019 | 5 | 295 | 0.0 | 0.0 | 0.00 | 0.00 | 0.00 | 96 | 1017.7 |
| 20260508073517 | 5 | 294 | 0.0 | 0.0 | 0.00 | 0.00 | 0.00 | 95 | 1017.8 |
| 20260508073015 | 5 | 294 | 0.0 | 0.0 | 0.00 | 0.00 | 0.00 | 95 | 1017.3 |
| 20260508072510 | 5 | 294 | 0.0 | 0.0 | 0.00 | 0.00 | 0.00 | 95 | 1017.4 |
| 20260508072007 | 5 | 300 | 0.0 | 1.6 | 0.00 | 0.00 | 0.00 | 94 | 1017.3 |
| 20260508071505 | 6 | 296 | 0.0 | 0.0 | 0.00 | 0.00 | 0.00 | 94 | 1017.4 |
| 20260508071002 | 6 | 299 | 0.0 | 0.0 | 0.00 | 0.00 | 0.00 | 94 | 1017.4 |
| 20260508070500 | 6 | 297 | 0.0 | 0.0 | 0.00 | 0.00 | 0.00 | 93 | 1017.3 |
| 20260508065958 | 6 | 294 | 0.0 | 0.0 | 0.00 | 0.00 | 0.00 | 93 | 1017.2 |
| 20260508065456 | 6 | 297 | 0.0 | 0.0 | 0.00 | 0.00 | 0.00 | 93 | 1017.2 |
| 20260508064954 | 6 | 303 | 0.0 | 0.0 | 0.00 | 0.00 | 0.00 | 92 | 1017.3 |
| 20260508064451 | 6 | 294 | 0.0 | 0.0 | 0.00 | 0.00 | 0.00 | 91 | 1017.2 |
| 20260508063948 | 6 | 302 | 0.0 | 1.6 | 0.00 | 0.00 | 0.00 | 91 | 1017.3 |
| 20260508063445 | 7 | 297 | 0.0 | 0.0 | 0.00 | 0.00 | 0.00 | 90 | 1017.3 |
| 20260508062943 | 7 | 300 | 0.0 | 1.6 | 0.00 | 0.00 | 0.00 | 90 | 1017.1 |
| 20260508062441 | 7 | 297 | 0.0 | 1.6 | 0.00 | 0.00 | 0.00 | 89 | 1017.3 |
| 20260508061937 | 7 | 305 | 1.6 | 1.6 | 0.00 | 0.00 | 0.00 | 90 | 1017.2 |
| 20260508061435 | 7 | 299 | 0.0 | 1.6 | 0.00 | 0.00 | 0.00 | 90 | 1017.0 |
| 20260508060931 | 7 | 294 | 0.0 | 1.6 | 0.00 | 0.00 | 0.00 | 90 | 1017.1 |
| 20260508060429 | 7 | 300 | 0.0 | 1.6 | 0.00 | 0.00 | 0.00 | 90 | 1017.1 |
| 20260508055925 | 7 | 302 | 0.0 | 3.2 | 0.00 | 0.00 | 0.00 | 89 | 1017.0 |
| 20260508055421 | 7 | 295 | 0.0 | 0.0 | 0.00 | 0.00 | 0.00 | 88 | 1017.2 |
| 20260508054918 | 7 | 300 | 0.0 | 1.6 | 0.00 | 0.00 | 0.00 | 87 | 1017.3 |
| 20260508054416 | 7 | 300 | 0.0 | 0.0 | 0.00 | 0.00 | 0.00 | 87 | 1017.1 |
| 20260508053912 | 7 | 324 | 1.6 | 1.6 | 0.00 | 0.00 | 0.00 | 89 | 1017.2 |
| 20260508053409 | 8 | 313 | 1.6 | 1.6 | 0.00 | 0.00 | 0.00 | 88 | 1017.0 |
| 20260508052907 | 7 | 294 | 0.0 | 3.2 | 0.00 | 0.00 | 0.00 | 88 | 1017.4 |
| 20260508052404 | 7 | 296 | 0.0 | 0.0 | 0.00 | 0.00 | 0.00 | 90 | 1017.3 |
| 20260508051900 | 7 | 299 | 1.6 | 1.6 | 0.00 | 0.00 | 0.00 | 90 | 1017.2 |
| 20260508051356 | 7 | 296 | 0.0 | 1.6 | 0.00 | 0.00 | 0.00 | 90 | 1017.2 |
| 20260508050852 | 7 | 290 | 0.0 | 1.6 | 0.00 | 0.00 | 0.00 | 89 | 1017.1 |
| 20260508050349 | 8 | 293 | 0.0 | 0.0 | 0.00 | 0.00 | 0.00 | 89 | 1017.1 |
| 20260508045845 | 8 | 301 | 0.0 | 1.6 | 0.00 | 0.00 | 0.00 | 88 | 1017.2 |
| 20260508045343 | 8 | 327 | 3.2 | 3.2 | 0.00 | 0.00 | 0.00 | 87 | 1017.2 |
| 20260508044841 | 8 | 300 | 0.0 | 1.6 | 0.00 | 0.00 | 0.00 | 88 | 1017.2 |
| 20260508044337 | 8 | 280 | 3.2 | 3.2 | 0.00 | 0.00 | 0.00 | 86 | 1017.4 |
| 20260508043833 | 8 | 300 | 0.0 | 0.0 | 0.00 | 0.00 | 0.00 | 86 | 1017.1 |
| 20260508043330 | 8 | 314 | 3.2 | 3.2 | 0.00 | 0.00 | 0.00 | 86 | 1017.0 |
| 20260508042826 | 8 | 293 | 0.0 | 0.0 | 0.00 | 0.00 | 0.00 | 85 | 1016.8 |
| 20260508042325 | 8 | 306 | 0.0 | 1.6 | 0.00 | 0.00 | 0.00 | 83 | 1016.9 |
| 20260508041821 | 8 | 303 | 1.6 | 3.2 | 0.00 | 0.00 | 0.00 | 81 | 1017.0 |
| 20260508041317 | 8 | 293 | 0.0 | 1.6 | 0.00 | 0.00 | 0.00 | 82 | 1017.1 |
| 20260508040814 | 8 | 293 | 0.0 | 0.0 | 0.00 | 0.00 | 0.00 | 83 | 1017.0 |
| 20260508040312 | 9 | 296 | 0.0 | 0.0 | 0.00 | 0.00 | 0.00 | 81 | 1017.0 |
| 20260508035809 | 9 | 293 | 0.0 | 0.0 | 0.00 | 0.79 | 0.79 | 81 | 1016.9 |
| 20260508035307 | 9 | 289 | 3.2 | 11.3 | 0.00 | 0.79 | 0.79 | 79 | 1017.0 |
| 20260508034802 | 9 | 301 | 0.0 | 3.2 | 0.00 | 0.79 | 0.79 | 81 | 1016.8 |
| 20260508034300 | 9 | 292 | 0.0 | 1.6 | 0.00 | 0.79 | 0.79 | 79 | 1017.0 |
| 20260508033757 | 9 | 295 | 0.0 | 4.8 | 0.00 | 0.79 | 0.79 | 78 | 1016.9 |
| 20260508033255 | 9 | 292 | 1.6 | 1.6 | 0.00 | 0.79 | 0.79 | 78 | 1017.1 |
| 20260508032752 | 10 | 283 | 0.0 | 4.8 | 0.00 | 0.79 | 0.79 | 77 | 1017.1 |
| 20260508032249 | 10 | 285 | 0.0 | 3.2 | 0.00 | 0.79 | 0.79 | 78 | 1016.8 |
| 20260508031746 | 10 | 296 | 0.0 | 1.6 | 0.00 | 0.79 | 0.79 | 78 | 1016.9 |
| 20260508031242 | 10 | 229 | 6.4 | 11.3 | 0.00 | 0.79 | 0.79 | 77 | 1016.7 |
| 20260508030739 | 10 | 291 | 0.0 | 4.8 | 0.00 | 0.79 | 0.79 | 79 | 1016.6 |
| 20260508030236 | 10 | 300 | 1.6 | 17.7 | 0.00 | 0.79 | 0.79 | 76 | 1016.4 |
| 20260508025733 | 10 | 283 | 4.8 | 4.8 | 0.00 | 0.79 | 0.79 | 77 | 1016.6 |
| 20260508025230 | 10 | 262 | 6.4 | 11.3 | 0.00 | 0.79 | 0.79 | 77 | 1016.6 |
| 20260508024726 | 10 | 243 | 3.2 | 8.0 | 0.00 | 0.79 | 0.79 | 77 | 1016.5 |
| 20260508024223 | 10 | 281 | 6.4 | 11.3 | 0.00 | 0.79 | 0.79 | 77 | 1016.5 |
| 20260508023720 | 10 | 279 | 6.4 | 12.9 | 0.00 | 0.79 | 0.79 | 77 | 1016.4 |
| 20260508023217 | 10 | 311 | 9.7 | 16.1 | 0.00 | 0.79 | 0.79 | 78 | 1016.4 |
| 20260508022713 | 10 | 280 | 6.4 | 9.7 | 0.00 | 0.79 | 0.79 | 77 | 1016.3 |